This is the latest recevied weather packets stored in our database for station/object KC3BAN-3. If no packets are shown the sender has not sent any weather packets the latest 10 day(s).
| Time | Temp. | Humidity | Pressure | Rain* | Wind** | Luminosity | Snow |
|---|---|---|---|---|---|---|---|
| 1777721908 | 13.33° C | 97% | 1012 hPa | 1.52 mm | - | - | - |
| 1777721737 | 13.33° C | 97% | 1012 hPa | 1.78 mm | - | - | - |
| 1777721435 | 13.33° C | 97% | 1012.1 hPa | 1.78 mm | - | - | - |
| 1777721008 | 13.33° C | 97% | 1012.1 hPa | 1.78 mm | - | - | - |
| 1777720709 | 13.33° C | 97% | 1012.1 hPa | 1.78 mm | - | - | - |
| 1777720408 | 13.33° C | 97% | 1012.1 hPa | 2.03 mm | - | - | - |
| 1777720249 | 13.33° C | 97% | 1012 hPa | 2.03 mm | - | - | - |
| 1777719806 | 13.33° C | 97% | 1012.1 hPa | 2.29 mm | - | - | - |
| 1777719507 | 13.33° C | 97% | 1011.9 hPa | 2.29 mm | - | - | - |
| 1777719335 | 13.33° C | 97% | 1012.1 hPa | 2.79 mm | - | - | - |
| 1777718906 | 13.33° C | 97% | 1012.1 hPa | 2.54 mm | - | - | - |
| 1777718606 | 13.33° C | 97% | 1012.1 hPa | 2.54 mm | - | - | - |
| 1777718306 | 13.33° C | 97% | 1012 hPa | 2.54 mm | - | - | - |
| 1777718132 | 13.33° C | 97% | 1011.9 hPa | 2.54 mm | - | - | - |
| 1777717706 | 13.33° C | 97% | 1011.8 hPa | 2.54 mm | - | - | - |
| 1777717401 | 13.33° C | 97% | 1011.6 hPa | 2.79 mm | - | - | - |
| 1777717100 | 13.33° C | 97% | 1011.5 hPa | 2.79 mm | - | - | - |
| 1777716801 | 13.33° C | 97% | 1011.5 hPa | 2.79 mm | - | - | - |
| 1777716500 | 13.33° C | 97% | 1011.5 hPa | 2.54 mm | - | - | - |
| 1777716204 | 13.33° C | 97% | 1011.5 hPa | 2.54 mm | - | - | - |
| 1777716028 | 12.78° C | 97% | 1011.5 hPa | 2.54 mm | - | - | - |
| 1777715601 | 12.78° C | 97% | 1011.5 hPa | 2.29 mm | - | - | - |
| 1777715301 | 12.78° C | 97% | 1011.6 hPa | 2.54 mm | - | - | - |
| 1777715003 | 12.78° C | 97% | 1011.4 hPa | 2.79 mm | - | - | - |
| 1777714696 | 13.33° C | 97% | 1011.4 hPa | 2.79 mm | - | - | - |
* Rain latest hour (hover to see other rain measurements)
** Current wind speed in m/s (hover to see current wind gust speed)